TimeCDT,TemperatureF,Dew PointF,Humidity,Sea Level PressureIn,VisibilityMPH,Wind Direction,Wind SpeedMPH,Gust SpeedMPH,PrecipitationIn,Events,Conditions,WindDirDegrees,DateUTC
12:03 AM,73.4,66.2,78,29.90,1.8,WSW,13.8,29.9,0.18,Rain-Thunderstorm,Heavy Thunderstorms and Rain,250,2012-10-14 05:03:00
12:20 AM,68.0,64.4,88,29.90,4.0,West,5.8,-,0.33,Rain-Thunderstorm,Light Rain,260,2012-10-14 05:20:00
12:28 AM,68.0,64.4,88,29.89,1.5,SW,8.1,20.7,0.51,Rain-Thunderstorm,Heavy Rain,220,2012-10-14 05:28:00
12:50 AM,66.2,64.4,94,29.88,2.5,Variable,4.6,-,0.71,Rain-Thunderstorm,Heavy Thunderstorms and Rain,0,2012-10-14 05:50:00
12:53 AM,66.0,64.9,96,29.87,2.5,SSW,3.5,-,0.72,Rain-Thunderstorm,Heavy Rain,200,2012-10-14 05:53:00
1:00 AM,66.2,64.4,94,29.89,4.0,Variable,3.5,-,0.01,Rain-Thunderstorm,Rain,0,2012-10-14 06:00:00
1:20 AM,66.2,64.4,94,29.86,6.0,Calm,Calm,-,0.05,Rain-Thunderstorm,Rain,0,2012-10-14 06:20:00
1:31 AM,66.2,64.4,94,29.87,6.0,Variable,4.6,-,0.07,Rain,Rain,0,2012-10-14 06:31:00
1:53 AM,66.0,64.0,93,29.85,5.0,Calm,Calm,-,0.13,Rain,Rain,0,2012-10-14 06:53:00
2:05 AM,66.2,64.4,94,29.85,8.0,Variable,4.6,-,0.02,Rain,Light Rain,0,2012-10-14 07:05:00
2:53 AM,66.0,64.0,93,29.85,10.0,Variable,5.8,-,0.07,Rain,Light Rain,0,2012-10-14 07:53:00
3:53 AM,64.9,63.0,93,29.76,10.0,Variable,4.6,-,0.08,,Partly Cloudy,0,2012-10-14 08:53:00
4:53 AM,64.9,61.0,87,29.78,10.0,Variable,6.9,-,N/A,,Clear,0,2012-10-14 09:53:00
5:53 AM,64.9,61.0,87,29.81,10.0,SSW,11.5,18.4,N/A,,Clear,200,2012-10-14 10:53:00
6:53 AM,64.0,60.1,87,29.83,10.0,Calm,Calm,-,N/A,,Clear,0,2012-10-14 11:53:00
7:53 AM,64.0,60.1,87,29.83,10.0,SSW,6.9,-,N/A,,Clear,200,2012-10-14 12:53:00
8:53 AM,64.9,60.1,84,29.88,10.0,Calm,Calm,-,N/A,,Clear,0,2012-10-14 13:53:00
9:53 AM,68.0,60.1,76,29.92,10.0,SSW,5.8,-,N/A,,Clear,210,2012-10-14 14:53:00
10:53 AM,72.0,60.1,66,29.93,10.0,SW,5.8,-,N/A,,Clear,220,2012-10-14 15:53:00
11:53 AM,75.0,55.9,51,29.94,10.0,Variable,6.9,-,N/A,,Clear,0,2012-10-14 16:53:00
12:53 PM,75.9,55.9,50,29.94,10.0,WNW,11.5,16.1,N/A,,Clear,300,2012-10-14 17:53:00
1:53 PM,75.9,55.0,48,29.93,10.0,WNW,16.1,25.3,N/A,,Clear,290,2012-10-14 18:53:00
3:53 PM,77.0,55.0,47,29.93,10.0,West,11.5,25.3,N/A,,Clear,280,2012-10-14 20:53:00
4:53 PM,77.0,55.0,47,29.92,10.0,West,12.7,17.3,N/A,,Clear,280,2012-10-14 21:53:00
5:53 PM,75.0,53.1,46,29.94,10.0,West,8.1,18.4,N/A,,Partly Cloudy,270,2012-10-14 22:53:00
6:53 PM,71.1,54.0,55,29.96,10.0,Variable,3.5,-,N/A,,Clear,0,2012-10-14 23:53:00
7:53 PM,66.9,54.0,63,29.98,10.0,West,3.5,-,N/A,,Clear,280,2012-10-15 00:53:00
8:53 PM,59.0,55.0,87,30.00,10.0,Calm,Calm,-,N/A,,Clear,0,2012-10-15 01:53:00
9:53 PM,57.0,54.0,89,30.01,10.0,Calm,Calm,-,N/A,,Clear,0,2012-10-15 02:53:00
10:53 PM,55.0,52.0,89,30.03,10.0,Calm,Calm,-,N/A,,Clear,0,2012-10-15 03:53:00
11:53 PM,54.0,52.0,93,30.04,10.0,Calm,Calm,-,N/A,,Clear,0,2012-10-15 04:53:00